Regional Weather Roundup
Issued by NWS

Home | Current Version | Previous Version | Text Only | Print | Product List | Glossary Off
Versions: 1 2 3 4 5 6 7 8 9 10 11 12 13 14 15 16 17 18 19 20 21 22 23 24 25 26 27 28 29 30 31 32 33 34 35 36 37 38 39 40 41 42 43 44 45 46 47 48 49 50

000
ASUS43 KFSD 272202
RWRSD

WEATHER ROUNDUP FOR SOUTH DAKOTA
NATIONAL WEATHER SERVICE SIOUX FALLS SD
500 PM CDT WED MAY 27 2015

NOTE: "FAIR" INDICATES FEW OR NO CLOUDS BELOW 12,000 FEET WITH NO
SIGNIFICANT WEATHER AND/OR OBSTRUCTIONS TO VISIBILITY.


SDZ001>005-009-010-012>017-272300-
NORTHWEST AND NORTH CENTRAL SOUTH DAKOTA

CITY           SKY/WX    TMP DP  RH WIND       PRES   REMARKS
BUFFALO          N/A     72  51  47 S13G22    29.83F
FAITH            N/A     64  57  78 S17G28    29.94S
MOBRIDGE       MOSUNNY   83  47  28 S18       29.90F
$$

SDZ012>016-024>037-041>051-057-063-072>074-272300-
SOUTHWEST AND SOUTH CENTRAL SOUTH DAKOTA

CITY           SKY/WX    TMP DP  RH WIND       PRES   REMARKS
RAPID CTY ARPT CLOUDY    69  55  60 SE7       29.92F
PIERRE         PTSUNNY   76  49  38 S12       29.94F
CUSTER         CLOUDY    64  46  52 SW7G17    30.02F
ELLSWORTH AFB  CLOUDY    71  58  64 N7        29.92F
PHILIP         CLOUDY    73  54  51 SE17      29.90F
PINE RIDGE     TSTM      65  55  70 NW9       29.95S
WINNER         MOCLDY    81  47  30 S16       29.98F
$$

SDZ004>011-016>023-039-040-272300-
NORTHEAST SOUTH DAKOTA

CITY           SKY/WX    TMP DP  RH WIND       PRES   REMARKS
ABERDEEN       PTSUNNY   84  50  30 S5        29.95F
WATERTOWN      MOSUNNY   82  46  28 S6        29.99F
BROOKINGS      MOSUNNY   82  45  26 W3        30.00F
$$

SDZ017-020-022-023-036>040-048>070-272300-
SOUTHEAST SOUTH DAKOTA

CITY           SKY/WX    TMP DP  RH WIND       PRES   REMARKS
SIOUX FALLS    PTSUNNY   80  51  36 SW3       30.00F
HURON            N/A    N/A N/A N/A MISG      29.96F
CHAMBERLAIN    CLOUDY    77  52  41 S15G26    29.98F
MITCHELL       PTSUNNY   82  50  32 SW8       29.99F
YANKTON        PTSUNNY   82  50  32 S9        29.99F
$$

ABBREVIATIONS USED IN REMARKS
   TC - TEMPERATURE IN CELSIUS
  WCI - WIND CHILL INDEX
   HX - HEAT INDEX
  VSB - VISIBILITY



USA.gov is the U.S. government's official web portal to all federal, state and local government web resources and services.